Location: Bukit Setapoh
(2.2500°N, 113.8000°E)
Time: 22:52:44
(UTC+00:00)

Centaur Rocket - Pass Details

Date: 25 July 2021
Orbit: 254 x 8908 km, 18.1° (Epoch: 18 September)

Event Time Altitude Azimuth Distance (km) Brightness Sun altitude
Rises 10:59:49 0° 293° (WNW) 1,817 8.3 -5.9°
Reaches altitude 10° 11:01:25 10° 296° (WNW) 1,021 6.0 -6.3°
Maximum altitude 11:03:20 65° 19° (NNE) 328 1.7 -6.8°
Drops below altitude 10° 11:06:23 10° 104° (ESE) 1,598 4.5 -7.5°
Enters shadow 11:06:33 - 104° (ESE) 1,681 4.6 -7.5°
